KC3MN Weather Reports


Display with metric or nautical units.
time (UTC)temp
F
wind
direction
speed
MPH
gust
MPH
rain 1hr
in
rain 24hr
in
rain mn
in
humidity
%
barometer
mb
20260506211554 54 294 4.0 12.0 0.00 0.38 0.38 84 1007.0
20260506210045 56 18 4.0 12.0 0.00 0.38 0.38 83 1006.7
20260506204551 62 352 2.0 9.0 0.00 0.39 0.38 86 1006.3
20260506203043 63 0 0.0 2.0 0.00 0.39 0.38 88 1005.9
20260506201543 62 0 0.0 2.0 0.00 0.39 0.38 89 1005.8
20260506200050 61 0 0.0 5.0 0.00 0.39 0.38 89 1006.1
20260506194549 61 0 0.0 3.0 0.00 0.39 0.38 89 1006.2
20260506193044 61 0 1.0 3.0 0.00 0.39 0.38 89 1006.4
20260506191543 61 0 0.0 2.0 0.00 0.39 0.38 90 1006.4
20260506190043 61 229 0.0 3.0 0.01 0.39 0.38 90 1006.4
20260506184543 61 277 0.0 2.0 0.01 0.39 0.38 90 1006.6
20260506183048 61 0 1.0 6.0 0.01 0.39 0.38 90 1006.7
20260506181545 61 286 0.0 2.0 0.02 0.39 0.38 90 1006.7
20260506180046 60 0 0.0 3.0 0.04 0.38 0.37 90 1006.8
20260506174546 60 228 0.0 2.0 0.04 0.38 0.37 90 1006.7
20260506173049 60 0 0.0 3.0 0.06 0.38 0.37 90 1006.9
20260506171553 60 0 0.0 2.0 0.06 0.37 0.36 89 1006.9
20260506170059 60 0 0.0 2.0 0.04 0.34 0.33 89 1006.9
20260506164554 60 16 0.0 2.0 0.06 0.34 0.33 89 1006.9
20260506163045 60 0 0.0 3.0 0.08 0.32 0.31 89 1007.0
20260506161553 60 315 0.0 2.0 0.11 0.31 0.30 89 1006.8
20260506160049 60 0 0.0 2.0 0.12 0.30 0.29 89 1006.9
20260506154551 60 0 0.0 2.0 0.12 0.28 0.27 89 1007.1
20260506153046 60 342 0.0 3.0 0.09 0.24 0.23 88 1007.2
20260506151545 60 343 0.0 2.0 0.06 0.20 0.19 88 1007.3
20260506150045 61 0 0.0 3.0 0.07 0.18 0.17 88 1007.2
20260506144546 60 5 0.0 2.0 0.06 0.16 0.15 88 1007.0
20260506143051 61 0 0.0 2.0 0.08 0.15 0.14 88 1007.2
20260506141606 61 0 0.0 2.0 0.09 0.14 0.13 87 1007.1
20260506140048 60 0 0.0 2.0 0.08 0.11 0.10 86 1007.3
20260506134546 61 0 0.0 0.0 0.07 0.09 0.08 85 1007.6
20260506133059 61 0 0.0 2.0 0.06 0.07 0.06 84 1007.8
20260506131555 61 0 0.0 2.0 0.04 0.05 0.04 82 1007.9
20260506130045 62 0 0.0 3.0 0.02 0.03 0.02 79 1008.1
20260506124553 63 159 0.0 7.0 0.01 0.02 0.01 77 1008.0
20260506123048 63 253 3.0 7.0 0.00 0.01 0.00 75 1007.6
20260506121555 61 0 1.0 3.0 0.00 0.01 0.00 78 1007.3
20260506120109 61 0 0.0 2.0 0.00 0.01 0.00 80 1007.4
20260506114547 60 0 0.0 2.0 0.00 0.01 0.00 80 1007.4
20260506113044 60 334 0.0 2.0 0.00 0.01 0.00 80 1007.5
20260506111541 59 0 0.0 7.0 0.00 0.01 0.00 81 1007.3
20260506110051 58 320 0.0 0.0 0.00 0.01 0.00 82 1007.2
20260506104552 0 0.0 0.0 0.00 0.01 0.00 1007.0
20260506103054 0 0.0 0.0 0.00 0.01 0.00 1006.7
20260506101553 0 0.0 0.0 0.00 0.01 0.00 1006.7
20260506100054 0 0.0 0.0 0.00 0.01 0.00 1006.6
20260506094551 0 0.0 0.0 0.00 0.01 0.00 1006.8
20260506093051 0 0.0 0.0 0.00 0.01 0.00 1006.8
20260506091546 0 0.0 0.0 0.00 0.01 0.00 1006.8
20260506090051 0 0.0 0.0 0.00 0.01 0.00 1006.9
20260506084552 0 0.0 0.0 0.00 0.01 0.00 1007.0
20260506083050 0 0.0 0.0 0.00 0.01 0.00 1007.3
20260506081552 0 0.0 0.0 0.00 0.01 0.00 1007.0
20260506073059 0 0.0 0.0 0.00 0.01 0.00 1007.1
20260506071550 0 0 0.0 0.0 0.00 0.01 0.00 1007.3
20260506070116 55 0 0.0 0.0 0.00 0.01 0.00 85 1007.4
20260506061545 54 0 0.0 0.0 0.00 0.01 0.00 85 1007.7
20260506044556 55 0 0.0 0.0 0.00 0.01 0.00 83 1008.1
20260506043046 56 0 0.0 0.0 0.00 0.01 0.00 83 1008.2
20260506041551 56 0 0.0 0.0 0.00 0.01 0.00 82 1008.3
20260506040058 57 0 0.0 0.0 0.00 0.01 0.00 81 1008.3
20260506034549 57 0 0.0 0.0 0.00 0.01 0.01 81 1008.5
20260506033046 58 0 0.0 0.0 0.00 0.01 0.01 80 1008.3
20260506031556 58 0 0.0 0.0 0.00 0.01 0.01 79 1008.3
20260506030110 59 0 0.0 0.0 0.00 0.01 0.01 78 1008.1
20260506024544 60 0 0.0 0.0 0.00 0.01 0.01 77 1008.2
20260506023047 61 0 0.0 0.0 0.00 0.01 0.01 76 1008.1
20260506021548 62 0 0.0 0.0 0.00 0.01 0.01 75 1008.2
20260506020052 63 0 0.0 0.0 0.00 0.01 0.01 72 1008.2
20260506014559 63 0 0.0 0.0 0.00 0.01 0.01 68 1008.1
20260506013053 64 0 0.0 0.0 0.00 0.01 0.01 67 1008.0
20260506011557 65 0 0.0 0.0 0.00 0.01 0.01 66 1007.7
20260506010054 66 0 0.0 0.0 0.00 0.01 0.01 63 1007.5
20260506004623 68 284 0.0 1.0 0.00 0.01 0.01 62 1007.3
20260506003056 69 0 0.0 0.0 0.00 0.01 0.01 59 1007.1
20260506001556 70 0 0.0 0.0 0.00 0.01 0.01 56 1007.0
20260506000054 72 0 0.0 0.0 0.00 0.01 0.01 52 1007.0
20260505234610 73 0 0.0 0.0 0.00 0.01 0.01 48 1006.8
20260505233050 75 0 0.0 0.0 0.00 0.01 0.01 43 1006.7
20260505231551 76 0 0.0 2.0 0.00 0.01 0.01 41 1006.5
20260505230054 76 0 0.0 7.0 0.00 0.01 0.01 39 1006.5
20260505224551 76 251 1.0 7.0 0.00 0.01 0.01 39 1006.5
20260505223058 76 213 0.0 3.0 0.00 0.01 0.01 40 1006.2
20260505221606 76 285 0.0 3.0 0.00 0.01 0.01 41 1006.2
20260505220133 76 237 0.0 7.0 0.00 0.01 0.01 41 1006.1
20260505214604 73 67 0.0 7.0 0.00 0.01 0.01 46 1006.2
20260505213046 71 0 0.0 2.0 0.01 0.01 0.01 61 1006.3